GW5948 Weather Reports


time (UTC)temp
F
wind
direction
speed
knots
gust
knots
rain 1hr
in
rain 24hr
in
rain mn
in
humidity
%
barometer
mb
20260503225520 52 173 3.5 4.3 0.00 0.00 0.00 47 1015.1
20260503224521 52 173 2.6 3.5 0.00 0.00 0.00 47 1015.2
20260503223520 52 203 2.6 3.5 0.00 0.00 0.00 47 1015.2
20260503222520 52 170 1.7 2.6 0.00 0.00 0.00 48 1015.4
20260503221542 52 173 2.6 3.5 0.00 0.00 0.00 47 1015.3
20260503220521 53 182 1.7 4.3 0.00 0.00 0.00 46 1015.4
20260503215518 52 178 1.7 2.6 0.00 0.00 0.00 48 1015.4
20260503214520 53 170 1.7 3.5 0.00 0.00 0.00 47 1015.4
20260503213519 53 175 2.6 4.3 0.00 0.00 0.00 45 1015.6
20260503212520 53 172 2.6 3.5 0.00 0.00 0.00 45 1015.6
20260503211519 52 172 1.7 1.7 0.00 0.00 0.00 46 1015.6
20260503210540 52 123 0.9 1.7 0.00 0.00 0.00 49 1015.7
20260503205520 51 135 1.7 2.6 0.00 0.00 0.00 50 1015.8
20260503204519 51 152 0.9 1.7 0.00 0.00 0.00 52 1015.8
20260503203519 52 147 0.9 1.7 0.00 0.00 0.00 48 1016.0
20260503202520 53 108 3.5 3.5 0.00 0.00 0.00 47 1016.0
20260503201520 53 116 1.7 1.7 0.00 0.00 0.00 47 1016.1
20260503200519 53 136 1.7 2.6 0.00 0.00 0.00 47 1016.2
20260503195519 53 123 1.7 2.6 0.00 0.00 0.00 48 1016.2
20260503194518 53 151 1.7 2.6 0.00 0.00 0.00 48 1016.2
20260503193520 53 147 0.9 1.7 0.00 0.00 0.00 49 1016.3
20260503192519 53 155 0.9 2.6 0.00 0.00 0.00 47 1016.3
20260503191518 54 155 2.6 3.5 0.00 0.00 0.00 46 1016.2
20260503190520 54 158 2.6 3.5 0.00 0.00 0.00 45 1016.3
20260503185519 54 163 1.7 2.6 0.00 0.00 0.00 46 1016.2
20260503184521 54 168 2.6 3.5 0.00 0.00 0.00 46 1016.3
20260503183519 55 158 2.6 4.3 0.00 0.00 0.00 45 1016.2
20260503182519 55 156 1.7 2.6 0.00 0.00 0.00 45 1016.2
20260503181519 55 159 2.6 3.5 0.00 0.00 0.00 45 1016.2
20260503180518 55 143 1.7 2.6 0.00 0.00 0.00 46 1016.2
20260503175519 56 154 0.9 1.7 0.00 0.00 0.00 45 1016.3
20260503174519 56 144 2.6 2.6 0.00 0.00 0.00 45 1016.5
20260503173520 56 122 1.7 1.7 0.00 0.00 0.00 44 1016.3
20260503172520 57 165 1.7 2.6 0.00 0.00 0.00 43 1016.3
20260503171519 58 173 0.9 2.6 0.00 0.00 0.00 42 1016.4
20260503170519 58 190 0.9 1.7 0.00 0.00 0.00 42 1016.5
20260503150540 60 284 4.3 7.0 0.00 0.00 0.00 36 1017.2
20260503130519 61 228 1.7 3.5 0.00 0.00 0.00 32 1018.5
20260503110517 61 318 6.1 11.3 0.00 0.00 0.00 32 1020.0
20260503081518 57 298 6.1 9.6 0.00 0.00 0.00 32 1021.6
20260503080517 57 312 3.5 7.0 0.00 0.00 0.00 33 1021.6
20260503072537 55 139 2.6 5.2 0.00 0.00 0.00 42 1021.7
20260503071517 55 192 4.3 7.0 0.00 0.00 0.00 43 1021.8
20260503070518 55 160 3.5 7.8 0.00 0.00 0.00 46 1021.8
20260503054518 49 165 2.6 3.5 0.00 0.00 0.00 55 1021.6
20260503053538 48 167 2.6 3.5 0.00 0.00 0.00 56 1021.6
20260503052539 48 161 2.6 3.5 0.00 0.00 0.00 55 1021.6
20260503051517 47 162 2.6 3.5 0.00 0.00 0.00 55 1021.6
20260503050517 47 152 0.9 2.6 0.00 0.00 0.00 55 1021.5
20260503045517 47 38 1.7 3.5 0.00 0.00 0.00 56 1021.5
20260503044518 46 147 0.9 3.5 0.00 0.00 0.00 57 1021.4
20260503043517 44 96 0.9 3.5 0.00 0.00 0.00 60 1021.4
20260503042517 43 144 0.9 4.3 0.00 0.00 0.00 61 1021.4
20260503041517 42 147 2.6 3.5 0.00 0.00 0.00 60 1021.4
20260503040516 41 137 1.7 3.5 0.00 0.00 0.00 62 1021.3
20260503035517 41 102 1.7 4.3 0.00 0.00 0.00 61 1021.2
20260503034517 40 39 1.7 4.3 0.00 0.00 0.00 63 1021.1
20260503033518 39 114 1.7 3.5 0.00 0.00 0.00 67 1021.1
20260503032538 38 78 1.7 5.2 0.00 0.00 0.00 67 1021.1
20260503031537 37 167 0.9 2.6 0.00 0.00 0.00 69 1021.0
20260503030516 37 129 1.7 2.6 0.00 0.00 0.00 69 1020.9
20260503025517 37 52 1.7 3.5 0.00 0.00 0.00 68 1021.0
20260503024517 39 167 0.9 2.6 0.00 0.00 0.00 64 1020.9
20260503023517 39 149 2.6 4.3 0.00 0.00 0.00 63 1020.9
20260503022537 39 11 1.7 5.2 0.00 0.00 0.00 62 1020.8
20260503021518 38 49 1.7 2.6 0.00 0.00 0.00 64 1020.9
20260503020517 39 148 1.7 3.5 0.00 0.00 0.00 62 1020.9
20260503015519 39 112 1.7 3.5 0.00 0.00 0.00 62 1020.9
20260503014516 40 135 1.7 3.5 0.00 0.00 0.00 60 1020.8
20260503013537 41 131 1.7 4.3 0.00 0.00 0.00 56 1020.8
20260503012537 42 49 2.6 5.2 0.00 0.00 0.00 54 1020.9
20260503011557 42 69 1.7 4.3 0.00 0.00 0.00 54 1020.8
20260503010537 42 10 0.9 3.5 0.00 0.00 0.00 55 1020.9
20260503005517 42 8 0.9 1.7 0.00 0.00 0.00 56 1021.0
20260503004518 41 11 1.7 2.6 0.00 0.00 0.00 57 1020.9
20260503003516 41 62 0.9 1.7 0.00 0.00 0.00 57 1021.0
20260503002537 43 165 0.0 1.7 0.00 0.00 0.00 56 1021.0
20260503001517 43 147 1.7 2.6 0.00 0.00 0.00 53 1021.0
20260503000517 43 268 0.0 1.7 0.00 0.00 0.00 53 1021.0
20260502235538 43 0.0 0.0 0.00 0.00 0.00 53 1021.0
20260502234518 43 0.0 0.9 0.00 0.00 0.00 54 1021.1
20260502233537 42 258 0.0 1.7 0.00 0.00 0.00 55 1021.1
20260502232518 42 0.0 0.9 0.00 0.00 0.00 56 1021.0
20260502231517 42 126 0.0 1.7 0.00 0.00 0.00 56 1021.2
20260502230516 43 39 0.0 0.9 0.00 0.00 0.00 55 1021.2